Lake Hood, AK

7:03 PM AKDT on October 17, 2017 (GMT -0800)
Lake Hood

Weather History for PALH - October, 2012

Change the Weather History Date:

Wednesday, October 10, 2012

  Actual Average Record
Temperature  
Mean Temperature 48 °F -  
Max Temperature 52 °F 41 °F 60 °F (2006)
Min Temperature 42 °F 30 °F 26 °F (1996)
Degree Days  
Heating Degree Days 18    
Moisture  
Dew Point 41 °F    
Average Humidity 80    
Maximum Humidity 93    
Minimum Humidity 58    
Precipitation  
Precipitation 0.00 in - - ()
Sea Level Pressure  
Sea Level Pressure 30.04 in    
Wind  
Wind Speed 2 mph (NNE)    
Max Wind Speed 10 mph    
Max Gust Speed -    
Visibility 8 miles    
Events Fog    
Averages and records for this station are not official NWS values.
T = Trace of Precipitation, MM = Missing Value Source: NWS Daily Summary

Daily Weather History Graph

Daily Weather History Graph

Search for Another Location

Airport or City:

Trip Planner

Search our weather history database for the weather conditions in past years. The results will help you decide how hot, cold, wet, or windy it might be!

Date:

Astronomy

Oct. 10, 2012 Rise Set
Actual Time 8:30 AM AKDT 7:01 PM AKDT
Civil Twilight 7:47 AM AKDT 7:44 PM AKDT
Nautical Twilight 6:57 AM AKDT 8:34 PM AKDT
Astronomical Twilight 6:06 AM AKDT 9:25 PM AKDT
Moon 1:58 AM AKDT (10/10) 5:16 PM AKDT (10/10)
Length of Visible Light 11h 56m
Length of Day
10h 30m
Waning Crescent, 26% of the Moon is Illuminated
Oct 10
Waning Crescent
Oct 15
New
Oct 21
First Quarter
Oct 29
Full
Nov 6
Last Quarter

Hourly Weather History & Observations

Time (AKDT) Temp. Windchill Dew Point Humidity Pressure Visibility Wind Dir Wind Speed Gust Speed Precip Events Conditions
12:02 AM 48.2 °F - 44.6 °F 87% 30.11 in 10.0 mi Calm Calm - N/A   Overcast
12:43 AM 48.2 °F - 44.6 °F 87% 30.10 in 10.0 mi Calm Calm - N/A   Overcast
12:53 AM 48.9 °F - 44.1 °F 83% 30.11 in 10.0 mi Calm Calm - N/A   Overcast
1:09 AM 48.2 °F - 42.8 °F 82% 30.10 in 10.0 mi Calm Calm - N/A   Overcast
1:53 AM 48.0 °F - 44.1 °F 86% 30.10 in 7.0 mi Calm Calm - N/A   Overcast
2:20 AM 48.2 °F - 44.6 °F 87% 30.09 in 10.0 mi Calm Calm - N/A   Overcast
2:53 AM 48.0 °F - 44.1 °F 86% 30.09 in 10.0 mi Calm Calm - N/A   Overcast
3:31 AM 48.2 °F - 44.6 °F 87% 30.08 in 10.0 mi Calm Calm - N/A   Overcast
3:39 AM 48.2 °F - 44.6 °F 87% 30.08 in 10.0 mi Calm Calm - N/A   Overcast
3:53 AM 48.0 °F - 44.1 °F 86% 30.08 in 10.0 mi Calm Calm - N/A   Overcast
4:17 AM 48.2 °F - 44.6 °F 87% 30.07 in 10.0 mi Calm Calm - N/A   Overcast
4:28 AM 48.2 °F - 44.6 °F 87% 30.07 in 10.0 mi Calm Calm - N/A   Overcast
4:53 AM 46.9 °F - 43.0 °F 86% 30.06 in 10.0 mi Calm Calm - N/A   Overcast
5:01 AM 46.4 °F - 42.8 °F 87% 30.06 in 10.0 mi Calm Calm - N/A   Overcast
5:53 AM 46.9 °F - 43.0 °F 86% 30.06 in 10.0 mi Calm Calm - N/A   Overcast
6:05 AM 46.4 °F - 42.8 °F 87% 30.05 in 10.0 mi Calm Calm - N/A   Overcast
6:53 AM 46.0 °F 44.8 °F 42.1 °F 86% 30.05 in 10.0 mi NE 3.5 mph - N/A   Overcast
7:45 AM 44.6 °F 41.4 °F 42.8 °F 93% 30.04 in 1.5 mi NNE 5.8 mph - N/A   Overcast
7:49 AM 44.6 °F 40.7 °F 41.0 °F 87% 30.04 in 0.8 mi NNE 6.9 mph - N/A   Overcast
7:53 AM 45.0 °F 41.8 °F 41.0 °F 86% 30.04 in 0.5 mi NNE 5.8 mph - N/A Fog Fog
8:36 AM 44.6 °F 43.1 °F 42.8 °F 93% 30.04 in 0.2 mi NNE 3.5 mph - N/A Fog Fog
8:53 AM 45.0 °F 41.8 °F 42.1 °F 90% 30.04 in 0.2 mi NNE 5.8 mph - N/A Fog Fog
9:48 AM 44.6 °F 42.2 °F 42.8 °F 93% 30.04 in 0.8 mi North 4.6 mph - N/A   Overcast
9:53 AM 45.0 °F 43.5 °F 42.1 °F 90% 30.04 in 2.0 mi North 3.5 mph - N/A   Overcast
9:55 AM 44.6 °F 43.1 °F 41.0 °F 87% 30.04 in 6.0 mi North 3.5 mph - N/A   Overcast
10:17 AM 44.6 °F - 41.0 °F 87% 30.05 in 10.0 mi Calm Calm - N/A   Mostly Cloudy
10:53 AM 46.0 °F 44.8 °F 39.9 °F 79% 30.05 in 10.0 mi North 3.5 mph - N/A   Mostly Cloudy
11:53 AM 48.0 °F - 39.9 °F 74% 30.04 in 10.0 mi NE 6.9 mph - N/A   Clear
12:53 PM 50.0 °F - 39.9 °F 68% 30.04 in 10.0 mi NNE 5.8 mph - N/A   Clear
1:53 PM 51.1 °F - 39.9 °F 66% 30.03 in 10.0 mi NE 9.2 mph - N/A   Clear
2:53 PM 51.1 °F - 37.9 °F 61% 30.01 in 10.0 mi NE 10.4 mph - N/A   Clear
3:53 PM 52.0 °F - 39.9 °F 63% 30.01 in 10.0 mi NNE 6.9 mph - N/A   Clear
4:53 PM 51.1 °F - 39.0 °F 63% 30.00 in 10.0 mi NE 10.4 mph - N/A   Clear
5:53 PM 51.1 °F - 39.9 °F 66% 29.98 in 10.0 mi NNE 8.1 mph - N/A   Clear
6:53 PM 48.0 °F - 39.9 °F 74% 29.98 in 10.0 mi NNE 3.5 mph - N/A   Clear
7:53 PM 48.0 °F - 37.9 °F 68% 29.98 in 10.0 mi North 4.6 mph - N/A   Clear
8:53 PM 46.9 °F - 36.0 °F 66% 29.97 in 10.0 mi NNW 6.9 mph - N/A   Clear
9:53 PM 45.0 °F 40.6 °F 39.9 °F 82% 29.96 in 10.0 mi NNE 8.1 mph - N/A   Clear
10:53 PM 43.0 °F 38.8 °F 28.9 °F 58% 29.96 in 10.0 mi North 6.9 mph - N/A   Clear
11:53 PM 42.1 °F 36.6 °F 28.0 °F 58% 29.95 in 10.0 mi North 9.2 mph - N/A   Clear